CW2057 Weather Reports


time (UTC)temp
C
wind
direction
speed
KPH
gust
KPH
rain 1hr
cm
rain 24hr
cm
rain mn
cm
humidity
%
barometer
mb
20260507095626 12 25 0.0 0.0 0.00 0.84 0.41 91 1012.5
20260507095116 12 25 0.0 0.0 0.00 0.84 0.41 91 1012.4
20260507094625 11 25 0.0 0.0 0.00 0.84 0.41 92 1012.4
20260507094113 11 25 0.0 0.0 0.00 0.84 0.41 92 1012.3
20260507093618 11 25 0.0 0.0 0.00 0.84 0.41 91 1012.4
20260507093127 11 25 0.0 0.0 0.00 0.84 0.41 90 1012.5
20260507092617 11 25 0.0 0.0 0.00 0.84 0.41 91 1012.6
20260507092146 11 25 0.0 0.0 0.00 0.84 0.41 90 1012.4
20260507091614 12 25 0.0 0.0 0.00 0.84 0.41 91 1012.6
20260507091122 11 25 0.0 0.0 0.00 0.84 0.41 91 1012.6
20260507090631 11 25 0.0 0.0 0.00 0.84 0.41 91 1012.5
20260507090120 11 25 0.0 0.0 0.00 0.84 0.41 91 1012.4
20260507085629 11 25 0.0 0.0 0.00 0.84 0.41 91 1012.3
20260507085138 11 25 0.0 0.0 0.00 0.84 0.41 90 1012.1
20260507084646 11 25 0.0 0.0 0.00 0.84 0.41 91 1012.2
20260507084114 11 25 0.0 0.0 0.00 0.84 0.41 91 1012.2
20260507083623 11 25 0.0 0.0 0.00 0.84 0.41 91 1012.0
20260507083152 11 25 0.0 0.0 0.00 0.84 0.41 91 1012.0
20260507082620 11 25 0.0 0.0 0.00 0.84 0.41 91 1011.8
20260507082125 11 25 0.0 0.0 0.00 0.84 0.41 91 1011.5
20260507081614 11 357 0.0 1.6 0.00 0.84 0.41 90 1011.4
20260507081122 11 357 0.0 1.6 0.03 0.84 0.41 90 1011.5
20260507080632 11 10 0.0 0.0 0.03 0.84 0.41 91 1011.5
20260507080121 11 10 0.0 0.0 0.03 0.84 0.41 91 1011.4
20260507075628 11 10 0.0 0.0 0.03 0.84 0.41 91 1011.2
20260507075117 11 355 0.0 0.0 0.03 0.84 0.41 91 1011.3
20260507074646 11 355 0.0 0.0 0.03 0.84 0.41 91 1011.2
20260507074114 11 64 0.0 0.0 0.03 0.84 0.41 91 1011.2
20260507073622 11 9 0.0 0.0 0.03 0.84 0.41 90 1011.3
20260507073131 11 4 0.0 1.6 0.03 0.84 0.41 91 1011.4
20260507072621 11 7 0.0 1.6 0.03 0.84 0.41 91 1011.4
20260507072149 11 7 0.0 1.6 0.03 0.84 0.41 91 1011.2
20260507071617 11 57 0.0 3.2 0.03 0.84 0.41 91 1011.4
20260507071126 11 17 0.0 1.6 0.00 0.81 0.38 91 1011.2
20260507070636 11 40 0.0 4.8 0.00 0.81 0.38 91 1011.5
20260507070123 11 17 0.0 4.8 0.00 0.81 0.38 91 1011.5
20260507065649 12 51 0.0 3.2 0.03 0.81 0.38 91 1011.6
20260507065116 12 26 0.0 6.4 0.03 0.81 0.38 91 1011.7
20260507064626 12 355 0.0 8.0 0.05 0.81 0.38 92 1011.7
20260507064115 12 347 0.0 1.6 0.05 0.81 0.38 92 1011.5
20260507063623 12 356 0.0 1.6 0.08 0.81 0.38 92 1011.3
20260507063132 12 355 0.0 0.0 0.10 0.81 0.38 92 1011.1
20260507062622 12 355 0.0 0.0 0.10 0.81 0.38 92 1011.3
20260507062130 12 355 0.0 0.0 0.13 0.81 0.38 92 1011.5
20260507061621 12 355 0.0 0.0 0.15 0.81 0.38 92 1011.4
20260507061131 13 355 0.0 0.0 0.18 0.81 0.38 92 1011.5
20260507060639 13 348 0.0 0.0 0.20 0.81 0.38 91 1011.5
20260507060127 13 348 0.0 0.0 0.23 0.81 0.38 91 1011.4
20260507055617 13 325 0.0 0.0 0.25 0.79 0.36 91 1011.3
20260507055125 13 325 0.0 1.6 0.25 0.79 0.36 91 1011.6
20260507054615 13 324 0.0 1.6 0.28 0.76 0.33 90 1011.6
20260507054123 13 315 0.0 0.0 0.30 0.76 0.33 90 1011.5
20260507053633 13 315 0.0 0.0 0.30 0.74 0.30 89 1011.6
20260507053122 13 315 0.0 0.0 0.28 0.71 0.28 89 1012.0
20260507052628 13 14 0.0 0.0 0.28 0.71 0.28 91 1011.6
20260507052153 13 14 0.0 0.0 0.25 0.69 0.25 91 1011.6
20260507051620 13 23 0.0 0.0 0.23 0.66 0.23 90 1011.4
20260507051149 13 23 0.0 0.0 0.20 0.64 0.20 89 1011.5
20260507050617 13 23 0.0 0.0 0.18 0.61 0.18 90 1011.5
20260507050125 13 23 0.0 3.2 0.15 0.58 0.15 89 1011.7
20260507045615 13 20 0.0 3.2 0.10 0.53 0.10 88 1012.0
20260507045124 14 12 0.0 4.8 0.08 0.51 0.08 87 1012.1
20260507044632 14 352 1.6 4.8 0.05 0.48 0.05 86 1012.0
20260507044121 14 37 0.0 3.2 0.03 0.46 0.03 85 1011.5
20260507043630 14 24 0.0 0.0 0.00 0.43 0.00 84 1011.3
20260507043118 14 18 0.0 0.0 0.00 0.43 0.00 85 1011.5
20260507042647 14 9 0.0 1.6 0.00 0.43 0.00 84 1011.4
20260507042135 15 7 0.0 12.9 0.00 0.43 0.00 83 1011.6
20260507041622 15 330 4.8 12.9 0.00 0.43 0.00 81 1011.7
20260507041131 15 24 3.2 11.3 0.00 0.43 0.00 80 1011.3
20260507040620 15 340 1.6 14.5 0.00 0.43 0.00 79 1011.4
20260507040123 16 18 4.8 14.5 0.00 0.43 0.00 78 1011.2
20260507035631 16 32 0.0 6.4 0.00 0.43 0.43 79 1011.0
20260507035120 16 5 0.0 3.2 0.00 0.43 0.43 80 1010.7
20260507034629 16 10 0.0 6.4 0.00 0.43 0.43 80 1010.7
20260507034117 16 67 0.0 6.4 0.00 0.43 0.43 79 1011.0
20260507033625 16 5 0.0 3.2 0.00 0.43 0.43 79 1010.6
20260507033114 16 346 0.0 4.8 0.00 0.43 0.43 79 1010.9
20260507032623 16 1 0.0 4.8 0.00 0.43 0.43 78 1011.0
20260507032151 16 2 0.0 3.2 0.00 0.43 0.43 78 1010.9
20260507031620 16 3 0.0 3.2 0.00 0.43 0.43 78 1010.8
20260507031129 16 15 0.0 4.8 0.00 0.43 0.43 78 1010.9
20260507030617 17 14 0.0 4.8 0.00 0.43 0.43 77 1010.9
20260507030126 17 18 1.6 6.4 0.00 0.43 0.43 77 1010.6
20260507025617 17 19 0.0 6.4 0.00 0.43 0.43 77 1010.4
20260507025124 17 342 0.0 3.2 0.00 0.43 0.43 77 1010.4
20260507024614 17 33 0.0 6.4 0.00 0.43 0.43 77 1010.5
20260507024123 17 14 0.0 6.4 0.00 0.43 0.43 77 1010.4
20260507023630 17 25 1.6 6.4 0.00 0.43 0.43 77 1010.5
20260507023119 17 21 0.0 6.4 0.00 0.43 0.43 77 1010.4
20260507022644 17 165 1.6 6.4 0.00 0.43 0.43 78 1010.3
20260507022132 17 165 0.0 8.0 0.00 0.43 0.43 78 1010.3
20260507021620 17 165 1.6 8.0 0.00 0.43 0.43 79 1010.3
20260507021128 17 165 3.2 6.4 0.00 0.43 0.43 81 1010.2
20260507020618 17 165 1.6 4.8 0.00 0.43 0.43 83 1010.5
20260507020147 18 165 0.0 1.6 0.00 0.43 0.43 83 1010.4
20260507015615 18 165 0.0 1.6 0.00 0.43 0.43 83 1010.4
20260507015123 18 165 0.0 4.8 0.00 0.43 0.43 83 1010.2
20260507014632 18 165 1.6 4.8 0.00 0.43 0.43 83 1010.0
20260507014140 18 165 0.0 3.2 0.00 0.43 0.43 82 1010.1
20260507013627 18 165 0.0 3.2 0.00 0.43 0.43 82 1010.3
20260507013116 18 165 0.0 3.2 0.00 0.43 0.43 81 1010.4
20260507012621 18 165 0.0 1.6 0.00 0.43 0.43 81 1010.4
20260507012131 18 165 0.0 1.6 0.00 0.43 0.43 80 1010.3
20260507011640 18 165 0.0 4.8 0.00 0.43 0.43 80 1010.2
20260507010616 19 165 1.6 8.0 0.00 0.43 0.43 80 1010.5
20260507010121 19 165 1.6 8.0 0.00 0.43 0.43 81 1010.4
20260507005631 20 165 0.0 3.2 0.00 0.43 0.43 82 1010.3
20260507005119 19 165 0.0 3.2 0.00 0.43 0.43 81 1010.0
20260507004627 20 165 0.0 3.2 0.00 0.43 0.43 81 1010.0
20260507004116 20 165 0.0 1.6 0.00 0.43 0.43 81 1010.0
20260507003625 20 165 0.0 0.0 0.00 0.43 0.43 81 1009.9
20260507003153 20 165 0.0 0.0 0.00 0.43 0.43 81 1009.8
20260507002642 20 165 0.0 0.0 0.00 0.43 0.43 81 1009.9
20260507002130 20 165 0.0 0.0 0.00 0.43 0.43 80 1009.8
20260507001619 20 165 0.0 0.0 0.00 0.43 0.43 80 1009.7
20260507001127 20 165 0.0 0.0 0.00 0.43 0.43 80 1009.8
20260507000617 20 165 0.0 0.0 0.00 0.43 0.43 80 1009.7
20260507000126 20 165 0.0 0.0 0.00 0.43 0.43 79 1009.6
20260506235614 20 165 0.0 4.8 0.00 0.43 0.43 79 1009.6
20260506235143 20 165 0.0 4.8 0.00 0.43 0.43 79 1009.5
20260506234630 20 165 0.0 0.0 0.00 0.43 0.43 79 1009.5
20260506234118 20 165 0.0 3.2 0.00 0.43 0.43 78 1009.3
20260506233623 20 165 0.0 4.8 0.00 0.43 0.43 78 1009.3
20260506233132 20 165 1.6 4.8 0.00 0.43 0.43 78 1009.3
20260506232642 20 165 0.0 6.4 0.00 0.43 0.43 77 1009.2
20260506232129 20 165 1.6 6.4 0.00 0.43 0.43 77 1009.2
20260506231617 20 165 1.6 6.4 0.00 0.43 0.43 77 1009.1
20260506231126 20 165 0.0 4.8 0.00 0.43 0.43 77 1009.1
20260506230616 20 165 0.0 0.0 0.00 0.43 0.43 77 1009.2
20260506230125 20 165 0.0 3.2 0.00 0.43 0.43 77 1009.2
20260506225634 21 165 0.0 4.8 0.00 0.43 0.43 76 1009.1
20260506225122 21 165 1.6 8.0 0.00 0.43 0.43 76 1009.2
20260506224632 21 165 1.6 8.0 0.00 0.43 0.43 75 1009.1
20260506224117 21 165 0.0 4.8 0.00 0.43 0.43 76 1009.0
20260506223645 21 165 1.6 6.4 0.00 0.43 0.43 76 1009.0
20260506223114 20 165 1.6 6.4 0.00 0.43 0.43 76 1009.0
20260506222644 20 165 1.6 4.8 0.00 0.43 0.43 76 1009.3
20260506222126 21 165 0.0 8.0 0.00 0.43 0.43 76 1009.2
20260506221616 21 165 3.2 8.0 0.00 0.43 0.43 75 1009.2
20260506221126 21 165 1.6 9.7 0.00 0.43 0.43 75 1009.3
20260506220615 21 165 1.6 9.7 0.00 0.43 0.43 75 1009.2
20260506220123 21 165 1.6 9.7 0.00 0.43 0.43 75 1009.1
20260506215632 21 165 1.6 9.7 0.00 0.43 0.43 74 1009.1
20260506215121 21 165 1.6 9.7 0.00 0.43 0.43 74 1009.2
20260506214629 21 165 1.6 9.7 0.00 0.43 0.43 74 1009.1
20260506214118 21 165 6.4 9.7 0.00 0.43 0.43 73 1009.0
20260506213626 21 165 1.6 8.0 0.00 0.43 0.43 73 1009.0
20260506213115 21 165 1.6 6.4 0.00 0.43 0.43 73 1008.8
20260506212623 21 165 0.0 6.4 0.00 0.43 0.43 74 1008.8
20260506212132 21 165 1.6 8.0 0.00 0.43 0.43 74 1008.7
20260506211642 21 165 3.2 9.7 0.00 0.43 0.43 74 1008.9
20260506211128 21 165 0.0 9.7 0.00 0.43 0.43 74 1008.7
20260506210617 21 165 3.2 9.7 0.00 0.43 0.43 74 1008.7
20260506210125 21 165 3.2 8.0 0.00 0.43 0.43 73 1008.6
20260506205615 21 165 1.6 8.0 0.00 0.43 0.43 73 1008.6
20260506205144 21 165 3.2 8.0 0.00 0.43 0.43 73 1008.5
20260506204626 21 165 3.2 8.0 0.00 0.43 0.43 72 1008.5
20260506204115 21 165 3.2 9.7 0.00 0.43 0.43 72 1008.3
20260506203624 21 165 3.2 14.5 0.00 0.43 0.43 73 1008.6
20260506203132 21 165 3.2 14.5 0.00 0.43 0.43 74 1008.5
20260506202621 21 165 1.6 9.7 0.00 0.43 0.43 73 1008.7
20260506202130 21 165 3.2 9.7 0.00 0.43 0.43 72 1008.7
20260506201618 21 165 3.2 16.1 0.00 0.43 0.43 72 1008.5
20260506201127 21 165 6.4 16.1 0.00 0.43 0.43 72 1008.6
20260506200616 22 165 3.2 9.7 0.00 0.43 0.43 72 1008.4
20260506200125 22 305 3.2 12.9 0.00 0.43 0.43 71 1008.6
20260506195615 22 165 4.8 16.1 0.00 0.43 0.43 71 1008.6
20260506195123 22 165 6.4 19.3 0.00 0.43 0.43 70 1008.6
20260506194632 22 165 9.7 19.3 0.00 0.43 0.43 71 1008.6
20260506194120 22 165 4.8 16.1 0.00 0.43 0.43 71 1008.6
20260506193630 22 165 3.2 16.1 0.00 0.43 0.43 72 1008.5
20260506193118 21 11 4.8 19.3 0.00 0.43 0.43 72 1008.6
20260506192647 21 290 8.0 19.3 0.00 0.43 0.43 73 1008.6
20260506192135 21 214 3.2 16.1 0.00 0.43 0.43 74 1008.7
20260506191622 21 283 4.8 19.3 0.00 0.43 0.43 74 1008.8
20260506191127 21 282 6.4 19.3 0.00 0.43 0.43 75 1008.9
20260506190617 21 297 4.8 22.5 0.00 0.43 0.43 75 1008.9
20260506190146 21 274 4.8 22.5 0.00 0.43 0.43 75 1009.0
20260506185632 20 284 4.8 22.5 0.00 0.43 0.43 74 1009.0
20260506185121 20 7 6.4 20.9 0.00 0.43 0.43 75 1009.1
20260506184630 20 291 3.2 12.9 0.00 0.43 0.43 77 1009.2
20260506184138 20 247 1.6 14.5 0.00 0.43 0.43 78 1009.2
20260506183627 20 331 4.8 17.7 0.00 0.43 0.43 78 1009.1
20260506183116 20 288 6.4 19.3 0.00 0.43 0.43 78 1009.2
20260506182625 20 200 3.2 19.3 0.00 0.43 0.43 79 1009.2
20260506182133 19 265 4.8 16.1 0.00 0.43 0.43 79 1009.2
20260506181622 19 261 6.4 14.5 0.00 0.43 0.43 79 1009.3
20260506181150 19 287 1.6 20.9 0.00 0.43 0.43 81 1009.3
20260506180618 18 305 8.0 20.9 0.00 0.43 0.43 80 1009.2
20260506180127 18 193 3.2 12.9 0.00 0.43 0.43 80 1009.5
20260506175617 18 278 3.2 20.9 0.00 0.43 0.43 81 1009.5
20260506175124 18 191 6.4 20.9 0.00 0.43 0.43 81 1009.5
20260506174614 18 312 3.2 16.1 0.00 0.43 0.43 82 1009.5
20260506174119 18 322 3.2 20.9 0.00 0.43 0.43 81 1009.5
20260506173627 18 280 6.4 20.9 0.00 0.43 0.43 82 1009.4
20260506173116 18 165 4.8 16.1 0.00 0.43 0.43 83 1009.3
20260506172624 18 240 4.8 16.1 0.00 0.43 0.43 83 1009.5
20260506172131 18 212 6.4 17.7 0.00 0.43 0.43 83 1009.5
20260506171620 18 249 6.4 17.7 0.00 0.43 0.43 84 1009.6
20260506171127 18 197 6.4 20.9 0.00 0.43 0.43 84 1009.6
20260506170617 18 252 4.8 20.9 0.00 0.43 0.43 84 1009.6
20260506170146 17 324 4.8 17.7 0.00 0.43 0.43 86 1009.6
20260506165614 17 264 6.4 17.7 0.00 0.43 0.43 85 1009.7
20260506165143 17 218 3.2 19.3 0.00 0.43 0.43 86 1009.7
20260506164632 17 280 8.0 25.7 0.00 0.43 0.43 86 1009.7
20260506164119 17 239 6.4 25.7 0.00 0.43 0.43 87 1009.9
20260506163628 17 333 3.2 14.5 0.00 0.43 0.43 87 1009.7
20260506163137 17 238 4.8 17.7 0.00 0.43 0.43 88 1009.6
20260506162625 17 165 6.4 19.3 0.00 0.43 0.43 88 1009.7
20260506162149 16 222 6.4 20.9 0.00 0.43 0.43 88 1009.6
20260506161617 16 288 4.8 27.4 0.03 0.43 0.43 89 1009.8
20260506161125 16 288 4.8 32.2 0.03 0.43 0.43 89 1009.9
20260506160614 16 165 4.8 32.2 0.03 0.43 0.43 89 1009.9
20260506160124 16 50 8.0 22.5 0.03 0.43 0.43 90 1009.9
20260506155614 16 147 8.0 22.5 0.03 0.43 0.43 89 1009.9
20260506155122 16 249 4.8 17.7 0.03 0.43 0.43 90 1009.8
20260506154651 16 213 6.4 17.7 0.05 0.43 0.43 90 1009.9
20260506154119 16 189 6.4 17.7 0.05 0.43 0.43 90 1010.1
20260506153647 16 309 3.2 17.7 0.08 0.43 0.43 90 1009.9
20260506153115 16 307 8.0 24.1 0.10 0.43 0.43 90 1009.9
20260506152623 16 226 6.4 24.1 0.10 0.43 0.43 90 1009.9
20260506152131 16 251 6.4 20.9 0.13 0.43 0.43 90 1010.0
20260506151620 16 236 6.4 17.7 0.13 0.41 0.41 90 1010.2
20260506151128 16 232 4.8 17.7 0.15 0.41 0.41 90 1010.3
20260506150617 16 259 3.2 19.3 0.15 0.41 0.41 90 1010.4
20260506150126 16 196 6.4 19.3 0.18 0.41 0.41 90 1010.4
20260506145614 16 98 4.8 14.5 0.18 0.41 0.41 90 1010.6
20260506145117 16 154 6.4 17.7 0.20 0.41 0.41 90 1010.7
20260506144627 16 255 6.4 22.5 0.20 0.38 0.38 90 1010.7
20260506144115 16 120 4.8 29.0 0.20 0.38 0.38 90 1010.7
20260506143625 16 193 11.3 29.0 0.20 0.36 0.36 90 1010.7
20260506143114 16 251 8.0 22.5 0.18 0.33 0.33 90 1010.5
20260506142623 16 243 4.8 20.9 0.18 0.33 0.33 90 1010.4
20260506142132 16 239 9.7 20.9 0.18 0.30 0.30 90 1010.6
20260506141620 16 220 4.8 24.1 0.18 0.28 0.28 90 1010.4
20260506141129 16 221 4.8 24.1 0.18 0.25 0.25 89 1010.4
20260506140618 16 174 3.2 20.9 0.20 0.25 0.25 89 1010.4
20260506140127 16 228 4.8 17.7 0.18 0.23 0.23 89 1010.5
20260506135636 16 226 9.7 17.7 0.18 0.23 0.23 89 1010.6
20260506135145 16 262 8.0 19.3 0.18 0.20 0.20 89 1010.6
20260506134632 16 220 9.7 19.3 0.15 0.18 0.18 88 1010.7
20260506134121 16 84 6.4 17.7 0.18 0.18 0.18 88 1011.0
20260506133650 16 248 6.4 12.9 0.15 0.15 0.15 88 1011.1
20260506133118 16 301 3.2 16.1 0.15 0.15 0.15 88 1011.3
20260506132621 16 316 4.8 16.1 0.15 0.15 0.15 87 1011.1
20260506132131 16 47 3.2 14.5 0.13 0.13 0.13 87 1010.8
20260506131621 16 216 3.2 14.5 0.10 0.10 0.10 86 1010.6
20260506131129 16 222 1.6 6.4 0.08 0.08 0.08 85 1010.7
20260506130618 16 236 1.6 14.5 0.05 0.05 0.05 85 1010.6
20260506130127 17 211 3.2 14.5 0.05 0.05 0.05 84 1010.7
20260506125616 17 205 3.2 14.5 0.05 0.05 0.05 83 1010.5
20260506125144 17 154 4.8 12.9 0.03 0.03 0.03 83 1010.4
20260506124633 17 272 4.8 14.5 0.03 0.03 0.03 82 1010.5
20260506124122 17 244 3.2 14.5 0.00 0.00 0.00 81 1010.4
20260506123630 17 213 1.6 11.3 0.00 0.00 0.00 80 1010.5
20260506123139 17 356 3.2 12.9 0.00 0.00 0.00 80 1010.5
20260506122627 17 93 1.6 12.9 0.00 0.00 0.00 79 1010.6
20260506122116 17 218 1.6 12.9 0.00 0.00 0.00 79 1010.8
20260506121625 17 188 0.0 11.3 0.00 0.00 0.00 78 1010.9
20260506121133 17 249 3.2 9.7 0.00 0.00 0.00 77 1010.9
20260506120621 17 315 3.2 16.1 0.00 0.00 0.00 76 1010.9
20260506120127 17 284 3.2 16.1 0.00 0.00 0.00 75 1011.0
20260506115614 17 45 1.6 9.7 0.00 0.00 0.00 75 1010.8
20260506115120 18 228 3.2 9.7 0.00 0.00 0.00 75 1010.8
20260506114629 18 232 1.6 19.3 0.00 0.00 0.00 74 1010.8
20260506114137 18 231 4.8 19.3 0.00 0.00 0.00 73 1010.7
20260506113624 18 276 4.8 17.7 0.00 0.00 0.00 73 1010.5
20260506113133 18 212 3.2 17.7 0.00 0.00 0.00 73 1010.5
20260506112621 18 227 3.2 14.5 0.00 0.00 0.00 73 1010.5
20260506112129 18 211 6.4 19.3 0.00 0.00 0.00 72 1010.4
20260506111619 18 269 9.7 19.3 0.00 0.00 0.00 72 1010.3
20260506111127 18 180 6.4 19.3 0.00 0.00 0.00 72 1010.3
20260506110616 18 72 1.6 27.4 0.00 0.00 0.00 72 1010.2
20260506110144 18 313 3.2 27.4 0.00 0.00 0.00 72 1010.3
20260506105632 18 304 8.0 20.9 0.00 0.00 0.00 72 1010.3
20260506105120 18 274 6.4 20.9 0.00 0.00 0.00 72 1010.2
20260506104629 18 234 4.8 25.7 0.00 0.00 0.00 72 1010.1
20260506104139 18 239 8.0 25.7 0.00 0.00 0.00 72 1010.1
20260506103627 18 228 3.2 17.7 0.00 0.00 0.00 72 1010.0
20260506103115 18 307 3.2 14.5 0.00 0.00 0.00 72 1009.9
20260506102620 18 222 4.8 19.3 0.00 0.00 0.00 72 1010.0
20260506102129 18 165 9.7 19.3 0.00 0.00 0.00 72 1010.0
20260506101617 18 241 4.8 19.3 0.00 0.00 0.00 72 1010.0
20260506101126 18 182 3.2 19.3 0.00 0.00 0.00 72 1009.9
20260506100616 18 322 4.8 19.3 0.00 0.00 0.00 72 1009.9
20260506100126 18 316 8.0 19.3 0.00 0.00 0.00 72 1009.9